Location: Munkebjergskolens Observatorium
(55.3864°N, 10.3987°E)
Time: 16:16:28
(UTC+02:00)

NOAA 18 - Pass Details

Date: 21 March 2023
Orbit: 838 x 860 km, 98.9° (Epoch: 02 June)

Event Time Altitude Azimuth Distance (km) Brightness Sun altitude
Exits shadow 21:00:19 37° 98° (E) 1,322 5.7 -20.5°
Maximum altitude 21:01:43 44° 62° (ENE) 1,181 5.7 -20.6°
Drops below altitude 10° 21:06:58 10° 352° (N) 2,512 8.2 -21.2°
Sets 21:09:27 0° 346° (NNW) 3,454 9.1 -21.5°
